GW5351 Weather Reports


time (UTC)temp
F
wind
direction
speed
knots
gust
knots
rain 1hr
in
rain 24hr
in
rain mn
in
humidity
%
barometer
mb
20260510033734 75 220 0.9 7.0 0.00 0.00 0.00 80 1012.6
20260510033232 75 129 1.7 6.1 0.00 0.00 0.00 79 1012.5
20260510032728 76 35 1.7 3.5 0.00 0.00 0.00 79 1012.7
20260510032224 76 214 1.7 2.6 0.00 0.00 0.00 78 1012.6
20260510031719 76 241 1.7 7.8 0.00 0.00 0.00 79 1012.6
20260510031216 76 200 1.7 3.5 0.00 0.00 0.00 79 1012.7
20260510030715 77 302 1.7 5.2 0.00 0.00 0.00 80 1012.7
20260510030213 77 347 4.3 8.7 0.00 0.00 0.00 82 1012.8
20260510025710 77 115 2.6 7.8 0.00 0.00 0.00 81 1012.5
20260510025207 77 164 1.7 3.5 0.00 0.00 0.00 77 1012.5
20260510024704 76 175 1.7 2.6 0.00 0.00 0.00 77 1012.3
20260510024200 76 218 0.0 0.9 0.00 0.00 0.00 79 1011.8
20260510023656 75 221 0.0 0.9 0.00 0.00 0.00 79 1011.7
20260510023154 75 158 0.9 0.9 0.00 0.00 0.00 79 1011.4
20260510022649 75 204 0.0 0.0 0.00 0.00 0.00 79 1011.1
20260510022144 76 204 0.0 0.0 0.00 0.00 0.00 78 1011.0
20260510021635 75 205 0.0 0.0 0.00 0.00 0.00 78 1010.8
20260510021132 76 205 0.0 0.0 0.00 0.00 0.00 76 1010.7
20260510020631 76 205 0.0 0.0 0.00 0.00 0.00 76 1010.7
20260510020127 77 205 0.0 0.0 0.00 0.00 0.00 75 1010.5
20260510015623 77 205 0.0 0.0 0.00 0.00 0.00 74 1010.4
20260510015120 78 204 0.0 0.0 0.00 0.00 0.00 74 1010.1
20260510014615 78 205 0.9 0.9 0.00 0.00 0.00 73 1010.3
20260510014113 78 204 0.0 0.9 0.00 0.00 0.00 72 1010.1
20260510013608 79 213 0.0 0.9 0.00 0.00 0.00 71 1010.2
20260510013104 79 202 1.7 3.5 0.00 0.00 0.00 69 1010.2
20260510012603 80 231 3.5 3.5 0.00 0.00 0.00 67 1010.0
20260510012100 81 179 3.5 6.1 0.00 0.00 0.00 66 1010.0
20260510011559 82 237 1.7 1.7 0.00 0.00 0.00 67 1010.0
20260510011055 82 207 4.3 7.8 0.00 0.00 0.00 69 1010.0
20260510010552 83 162 2.6 3.5 0.00 0.00 0.00 74 1009.9
20260510010050 84 228 0.9 1.7 0.00 0.00 0.00 77 1009.8
20260510005550 84 227 0.0 0.9 0.00 0.00 0.00 76 1009.4
20260510005048 84 234 0.0 1.7 0.00 0.00 0.00 76 1009.4
20260510004545 85 162 1.7 2.6 0.00 0.00 0.00 77 1009.2
20260510004043 85 231 0.0 0.0 0.00 0.00 0.00 78 1009.3
20260510003539 85 231 0.0 0.0 0.00 0.00 0.00 79 1009.3
20260510003035 85 272 0.0 0.0 0.00 0.00 0.00 78 1009.3
20260510002530 85 204 0.0 0.0 0.00 0.00 0.00 79 1009.3
20260510002028 85 204 0.0 0.0 0.00 0.00 0.00 79 1009.3
20260510001525 85 204 0.0 0.0 0.00 0.00 0.00 80 1009.4
20260510001023 84 204 0.0 0.0 0.00 0.00 0.00 80 1009.1
20260510000518 84 204 0.0 0.0 0.00 0.00 0.00 82 1009.1
20260510000015 84 203 0.0 0.9 0.00 0.00 0.00 81 1009.0
20260509235512 84 196 0.0 0.9 0.00 0.00 0.00 81 1009.1
20260509235009 85 219 0.0 0.0 0.00 0.00 0.00 81 1009.0
20260509234505 85 220 0.0 0.0 0.00 0.00 0.00 81 1009.2
20260509234003 85 220 0.0 0.0 0.00 0.00 0.00 80 1009.2
20260509233500 85 220 0.0 0.0 0.00 0.00 0.00 78 1009.1
20260509232956 85 220 0.0 0.0 0.00 0.00 0.00 78 1009.2
20260509232454 85 220 0.0 0.0 0.00 0.00 0.00 77 1009.1
20260509231950 85 220 0.0 0.0 0.00 0.00 0.00 77 1009.0
20260509231446 85 205 0.0 0.0 0.00 0.00 0.00 76 1009.0
20260509230945 86 205 0.0 0.0 0.00 0.00 0.00 73 1009.1
20260509230441 86 236 0.0 0.0 0.00 0.00 0.00 73 1008.9
20260509225937 86 237 0.0 0.0 0.00 0.00 0.00 72 1008.8
20260509225434 86 230 0.0 0.9 0.00 0.00 0.00 71 1008.8
20260509224930 86 229 0.0 0.0 0.00 0.00 0.00 71 1008.8
20260509224425 87 229 0.9 0.9 0.00 0.00 0.00 71 1008.8
20260509223923 87 212 0.0 0.9 0.00 0.00 0.00 70 1008.9
20260509223419 87 211 0.0 0.9 0.00 0.00 0.00 69 1008.8
20260509222916 87 201 0.0 0.9 0.00 0.00 0.00 67 1008.8
20260509222407 88 218 0.0 0.9 0.00 0.00 0.00 67 1008.8
20260509221902 88 231 0.0 1.7 0.00 0.00 0.00 68 1008.7
20260509221359 89 346 2.6 2.6 0.00 0.00 0.00 66 1008.7
20260509220855 89 186 0.9 2.6 0.00 0.00 0.00 67 1008.8
20260509220351 89 262 0.0 2.6 0.00 0.00 0.00 67 1008.7
20260509215847 89 247 0.9 1.7 0.00 0.00 0.00 65 1008.6
20260509215343 89 222 0.0 0.9 0.00 0.00 0.00 65 1008.7
20260509214840 87 242 0.0 0.0 0.00 0.00 0.00 66 1008.8
20260509214337 88 255 0.9 0.9 0.00 0.00 0.00 67 1008.7
20260509213834 88 223 0.0 0.0 0.00 0.00 0.00 67 1008.7
20260509213329 88 223 0.0 0.9 0.00 0.00 0.00 65 1008.6
20260509212827 88 249 0.9 3.5 0.00 0.00 0.00 67 1008.7
20260509212325 88 238 0.9 1.7 0.00 0.00 0.00 66 1008.8
20260509211820 89 227 0.9 2.6 0.00 0.00 0.00 64 1008.8
20260509211317 89 228 1.7 2.6 0.00 0.00 0.00 64 1008.8
20260509210813 88 222 0.0 0.0 0.00 0.00 0.00 65 1008.8
20260509210311 88 231 0.0 0.9 0.00 0.00 0.00 65 1009.0
20260509205810 91 196 1.7 1.7 0.00 0.00 0.00 62 1009.0
20260509205307 91 161 2.6 3.5 0.00 0.00 0.00 62 1009.0
20260509204802 90 213 3.5 3.5 0.00 0.00 0.00 63 1009.1
20260509204258 90 149 0.9 3.5 0.00 0.00 0.00 65 1009.2
20260509203754 89 179 0.9 1.7 0.00 0.00 0.00 66 1009.3
20260509203252 89 277 0.9 3.5 0.00 0.00 0.00 65 1009.3
20260509202748 88 215 0.0 0.0 0.00 0.00 0.00 65 1009.4
20260509202245 89 223 1.7 1.7 0.00 0.00 0.00 65 1009.6
20260509201744 89 196 1.7 2.6 0.00 0.00 0.00 64 1009.5
20260509201241 88 192 2.6 6.1 0.00 0.00 0.00 68 1009.5
20260509200738 90 182 1.7 3.5 0.00 0.00 0.00 66 1009.4
20260509200238 90 227 0.9 5.2 0.00 0.00 0.00 67 1009.8
20260509195734 89 219 1.7 5.2 0.00 0.00 0.00 66 1009.7
20260509195229 90 231 0.9 2.6 0.00 0.00 0.00 66 1009.7
20260509194724 89 240 1.7 1.7 0.00 0.00 0.00 63 1009.7
20260509194221 89 230 0.9 1.7 0.00 0.00 0.00 64 1009.8
20260509193718 88 219 0.0 2.6 0.00 0.00 0.00 69 1010.0
20260509193217 89 229 0.9 1.7 0.00 0.00 0.00 66 1010.1
20260509192714 88 213 0.0 3.5 0.00 0.00 0.00 70 1009.9
20260509192209 88 184 0.9 2.6 0.00 0.00 0.00 67 1009.7
20260509191705 87 247 0.9 1.7 0.00 0.00 0.00 69 1010.0
20260509191201 87 256 0.9 2.6 0.00 0.00 0.00 70 1010.2
20260509190657 88 226 1.7 2.6 0.00 0.00 0.00 68 1010.2
20260509190155 87 179 1.7 2.6 0.00 0.00 0.00 69 1010.2
20260509185653 87 232 0.9 1.7 0.00 0.00 0.00 70 1010.5
20260509185148 89 172 2.6 2.6 0.00 0.00 0.00 69 1010.4
20260509184646 89 220 0.9 5.2 0.00 0.00 0.00 68 1010.5
20260509184143 88 225 0.9 2.6 0.00 0.00 0.00 70 1010.5
20260509183639 88 229 0.0 0.9 0.00 0.00 0.00 68 1010.6
20260509183134 87 223 0.9 2.6 0.00 0.00 0.00 69 1010.4
20260509182631 86 224 0.0 1.7 0.00 0.00 0.00 73 1010.7
20260509182128 84 228 1.7 2.6 0.00 0.00 0.00 73 1010.9
20260509181626 85 228 0.0 2.6 0.00 0.00 0.00 74 1010.7
20260509181124 85 208 0.0 0.9 0.00 0.00 0.00 73 1010.9
20260509180620 85 225 0.9 1.7 0.00 0.00 0.00 74 1011.0
20260509180116 86 235 0.0 0.0 0.00 0.00 0.00 73 1011.3
20260509175612 85 234 0.0 0.9 0.00 0.00 0.00 73 1011.2
20260509175109 86 237 0.9 1.7 0.00 0.00 0.00 72 1011.2
20260509174605 86 250 0.9 1.7 0.00 0.00 0.00 73 1011.3
20260509174100 85 235 0.9 2.6 0.00 0.00 0.00 75 1011.2
20260509173555 85 215 0.9 1.7 0.00 0.00 0.00 75 1011.4
20260509173051 84 229 0.0 0.9 0.00 0.00 0.00 76 1011.4
20260509172549 84 227 0.0 0.9 0.00 0.00 0.00 78 1011.4
20260509172044 84 217 0.0 0.0 0.00 0.00 0.00 76 1011.4
20260509171540 84 274 1.7 2.6 0.00 0.00 0.00 77 1011.3
20260509171037 84 268 0.9 0.9 0.00 0.00 0.00 77 1011.2
20260509170533 85 309 1.7 1.7 0.00 0.00 0.00 76 1011.4
20260509170029 84 227 0.9 2.6 0.00 0.00 0.00 77 1011.0
20260509165527 83 235 0.0 1.7 0.00 0.00 0.00 78 1011.1
20260509165023 85 313 2.6 2.6 0.00 0.00 0.00 77 1011.2
20260509164519 84 205 0.0 1.7 0.00 0.00 0.00 79 1011.1
20260509164016 82 241 0.9 1.7 0.00 0.00 0.00 81 1010.9
20260509163514 82 205 0.9 0.9 0.00 0.00 0.00 82 1010.9
20260509163013 82 160 2.6 3.5 0.00 0.00 0.00 82 1010.9
20260509162512 82 208 0.0 1.7 0.00 0.00 0.00 83 1011.1
20260509162002 81 170 1.7 2.6 0.00 0.00 0.00 84 1011.2
20260509161458 80 186 0.0 0.9 0.00 0.00 0.00 86 1011.4
20260509160954 79 200 0.0 1.7 0.00 0.00 0.00 88 1011.4
20260509160450 79 208 0.0 1.7 0.00 0.00 0.00 88 1011.3
20260509155950 79 189 0.9 2.6 0.00 0.00 0.00 88 1011.4
20260509155447 79 192 0.9 1.7 0.00 0.00 0.00 88 1011.7
20260509154943 78 193 0.0 1.7 0.00 0.00 0.00 90 1011.7
20260509154439 78 222 0.0 3.5 0.00 0.00 0.00 90 1011.7
20260509153937 78 168 1.7 2.6 0.00 0.00 0.00 90 1011.8
20260509153434 78 206 0.0 0.9 0.00 0.00 0.00 89 1011.9
20260509152931 79 207 0.0 1.7 0.00 0.00 0.00 89 1011.8
20260509152427 79 211 0.0 0.9 0.00 0.00 0.00 89 1011.7
20260509151924 78 231 0.0 0.0 0.00 0.00 0.00 90 1011.8
20260509151420 78 185 0.9 1.7 0.00 0.00 0.00 90 1011.6
20260509150918 78 180 0.9 2.6 0.00 0.00 0.00 91 1011.6
20260509150415 78 209 0.0 0.0 0.00 0.00 0.00 91 1011.5
20260509145914 77 216 0.0 0.9 0.00 0.00 0.00 92 1011.6
20260509145413 77 216 0.0 0.9 0.00 0.00 0.00 92 1011.3
20260509144909 77 211 0.0 0.9 0.00 0.00 0.00 93 1011.6
20260509144406 77 193 0.0 0.9 0.00 0.00 0.00 93 1011.5
20260509143903 77 210 0.0 0.0 0.00 0.00 0.00 94 1011.5
20260509143401 77 212 0.0 0.9 0.00 0.00 0.00 94 1011.3
20260509142857 77 211 0.0 0.0 0.00 0.00 0.00 95 1011.2
20260509142353 76 211 0.0 0.0 0.00 0.00 0.00 95 1011.2
20260509141849 76 211 0.0 0.9 0.00 0.00 0.00 96 1010.9
20260509141346 76 212 0.0 0.9 0.00 0.00 0.00 96 1010.7
20260509140842 76 199 0.0 0.9 0.00 0.00 0.00 96 1011.0
20260509140339 75 198 0.0 0.0 0.00 0.00 0.00 97 1010.9
20260509135838 76 216 0.0 0.0 0.00 0.00 0.00 97 1011.0
20260509135335 75 216 0.0 0.0 0.00 0.00 0.00 97 1011.2
20260509134832 75 227 0.0 0.0 0.00 0.00 0.00 98 1011.3
20260509134329 75 227 0.9 0.9 0.00 0.00 0.00 98 1011.2
20260509133826 75 227 0.9 0.9 0.00 0.00 0.00 98 1011.4
20260509133323 75 226 0.0 1.7 0.00 0.00 0.00 98 1011.6
20260509132822 75 186 0.9 1.7 0.00 0.00 0.00 98 1011.7
20260509132320 75 198 0.0 0.9 0.00 0.00 0.00 99 1011.6
20260509131816 75 204 0.0 0.9 0.00 0.00 0.00 99 1011.5
20260509131313 74 198 0.0 0.9 0.00 0.00 0.00 99 1011.9
20260509130809 74 192 0.0 0.9 0.00 0.00 0.00 99 1011.8
20260509130305 74 206 0.0 0.9 0.00 0.00 0.00 99 1011.8
20260509125802 74 223 0.0 0.0 0.00 0.00 0.00 99 1011.4
20260509125258 74 223 0.0 0.0 0.00 0.00 0.00 99 1011.4
20260509124755 74 223 0.0 0.0 0.00 0.00 0.00 99 1011.5
20260509124251 74 223 0.0 0.0 0.00 0.00 0.00 99 1011.4
20260509123750 74 223 0.0 0.0 0.00 0.00 0.00 99 1011.3
20260509123246 73 223 0.0 0.0 0.00 0.00 0.00 99 1011.5
20260509122742 73 223 0.0 0.0 0.00 0.00 0.00 99 1011.5
20260509122239 73 208 0.0 0.0 0.00 0.00 0.00 99 1011.5
20260509121736 73 208 0.0 0.0 0.00 0.00 0.00 99 1011.4
20260509121233 73 208 0.0 0.0 0.00 0.00 0.00 99 1011.3
20260509120731 73 208 0.0 0.9 0.00 0.00 0.00 99 1011.2
20260509120229 73 207 0.0 0.0 0.00 0.00 0.00 99 1011.1
20260509115727 73 208 0.0 0.0 0.00 0.00 0.00 99 1010.9
20260509115224 73 208 0.0 0.0 0.00 0.00 0.00 99 1010.8
20260509114722 73 208 0.0 0.0 0.00 0.00 0.00 99 1010.9
20260509114220 73 208 0.0 0.0 0.00 0.00 0.00 99 1011.1
20260509113719 73 208 0.0 0.0 0.00 0.00 0.00 99 1011.1
20260509113215 73 208 0.0 0.0 0.00 0.00 0.00 99 1010.9
20260509112712 73 209 0.0 0.0 0.00 0.00 0.00 99 1011.1
20260509112209 73 208 0.0 0.0 0.00 0.00 0.00 99 1011.2
20260509111706 73 207 0.0 0.9 0.00 0.00 0.00 99 1011.0
20260509111203 73 193 0.9 1.7 0.00 0.00 0.00 99 1010.9
20260509110700 73 193 0.0 1.7 0.00 0.00 0.00 99 1011.0
20260509110157 73 236 0.0 0.0 0.00 0.00 0.00 99 1011.4
20260509105655 73 236 0.0 0.0 0.00 0.00 0.00 99 1011.4
20260509105152 73 236 0.0 0.0 0.00 0.00 0.00 99 1011.3
20260509104649 73 236 0.0 0.0 0.00 0.00 0.00 99 1011.2
20260509104146 73 236 0.0 0.0 0.00 0.00 0.00 99 1011.2
20260509103644 73 236 0.0 0.0 0.00 0.00 0.00 99 1011.3
20260509103142 73 236 0.0 0.0 0.00 0.00 0.00 99 1011.2
20260509102639 73 236 0.0 0.0 0.00 0.00 0.00 99 1011.0
20260509102136 73 236 0.0 0.0 0.00 0.00 0.00 99 1010.9
20260509101632 73 236 0.0 0.9 0.00 0.00 0.00 99 1010.9
20260509101129 73 236 0.0 0.0 0.00 0.00 0.00 99 1010.7
20260509100626 73 236 0.0 0.0 0.00 0.00 0.00 99 1010.4
20260509100124 73 236 0.0 0.0 0.00 0.00 0.00 99 1010.4
20260509095620 73 236 0.0 0.0 0.00 0.00 0.00 99 1010.4
20260509095117 73 236 0.0 0.0 0.00 0.00 0.00 99 1010.4
20260509094613 73 236 0.0 1.7 0.00 0.00 0.00 99 1010.3
20260509094111 73 218 0.0 0.0 0.00 0.00 0.00 99 1010.3
20260509093609 73 218 0.0 0.0 0.00 0.00 0.00 99 1010.4
20260509093106 73 218 0.0 0.0 0.00 0.00 0.00 99 1010.6
20260509092604 73 218 0.0 0.0 0.00 0.00 0.00 99 1010.7
20260509092102 73 218 0.0 0.0 0.00 0.00 0.00 99 1010.6
20260509091600 73 218 0.0 0.0 0.00 0.00 0.00 99 1010.6
20260509091056 73 218 0.0 0.0 0.00 0.00 0.00 99 1010.6
20260509090553 73 218 0.0 0.0 0.00 0.00 0.00 99 1010.7
20260509090051 73 218 0.0 0.0 0.00 0.00 0.00 99 1010.7
20260509085548 73 218 0.0 0.0 0.00 0.00 0.00 99 1010.9
20260509085044 73 218 0.0 0.0 0.00 0.00 0.00 99 1010.9
20260509084541 73 218 0.0 0.0 0.00 0.00 0.00 99 1011.1
20260509084038 73 218 0.0 0.0 0.00 0.00 0.00 99 1011.1
20260509083536 73 218 0.0 0.0 0.00 0.00 0.00 99 1011.1
20260509083032 73 218 0.0 0.0 0.00 0.00 0.00 99 1011.1
20260509082530 73 218 0.0 0.0 0.00 0.00 0.00 99 1011.0
20260509082027 73 218 0.0 0.0 0.00 0.00 0.00 99 1011.0
20260509081524 73 217 0.0 0.0 0.00 0.00 0.00 99 1011.1
20260509081020 73 217 0.0 0.0 0.00 0.00 0.00 99 1011.0
20260509080519 73 217 0.0 0.0 0.00 0.00 0.00 99 1011.0
20260509080016 73 217 0.0 0.0 0.00 0.00 0.00 99 1010.8
20260509075513 73 217 0.0 0.0 0.00 0.00 0.00 99 1010.7
20260509075011 73 217 0.0 0.0 0.00 0.00 0.00 99 1010.8
20260509074508 73 217 0.0 0.9 0.00 0.00 0.00 99 1011.0
20260509074004 73 209 0.0 0.0 0.00 0.00 0.00 99 1010.7
20260509073501 73 211 0.0 0.9 0.00 0.00 0.00 99 1010.6
20260509072957 73 197 0.0 0.9 0.00 0.00 0.00 99 1010.7
20260509072454 73 198 0.0 0.0 0.00 0.00 0.00 99 1010.9
20260509071951 73 198 0.0 0.0 0.00 0.00 0.00 99 1010.9
20260509071447 73 198 0.0 0.0 0.00 0.00 0.00 99 1010.8
20260509070946 73 198 0.0 0.0 0.00 0.00 0.00 99 1010.9
20260509070442 73 198 0.0 0.0 0.00 0.00 0.00 99 1010.8
20260509065937 73 198 0.0 0.0 0.00 0.00 0.00 99 1010.8
20260509065434 73 198 0.0 0.9 0.00 0.00 0.00 99 1010.9
20260509064930 73 198 0.0 0.9 0.00 0.00 0.00 99 1010.7
20260509064428 73 223 0.0 0.0 0.00 0.00 0.00 99 1010.9
20260509063926 73 223 0.0 0.0 0.00 0.00 0.00 99 1010.9
20260509063421 73 194 0.0 0.0 0.00 0.00 0.00 99 1010.9
20260509062918 73 193 0.0 0.0 0.00 0.00 0.00 99 1011.0
20260509062416 73 194 0.0 0.0 0.00 0.00 0.00 99 1010.9
20260509061913 73 219 0.0 0.9 0.00 0.00 0.00 99 1010.9
20260509061411 73 202 0.0 0.9 0.00 0.00 0.00 99 1011.1
20260509060907 73 211 0.0 0.0 0.00 0.00 0.00 99 1011.3
20260509060405 73 197 0.0 0.0 0.00 0.00 0.00 99 1011.3
20260509055859 72 211 0.0 0.9 0.00 0.00 0.00 99 1011.3
20260509055355 72 197 0.0 1.7 0.00 0.00 0.00 99 1011.3
20260509054853 72 208 0.0 0.0 0.00 0.00 0.00 99 1011.3
20260509054349 72 207 0.0 0.9 0.00 0.00 0.00 99 1011.4
20260509053847 72 215 0.9 1.7 0.00 0.00 0.00 99 1011.4
20260509053344 72 212 0.0 0.9 0.00 0.00 0.00 99 1011.3
20260509052843 72 205 0.0 0.0 0.00 0.00 0.00 99 1011.3
20260509052340 72 208 0.0 0.9 0.00 0.00 0.00 99 1011.4
20260509051838 72 212 0.0 0.9 0.00 0.00 0.00 99 1011.5
20260509051336 72 193 0.0 1.7 0.00 0.00 0.00 99 1011.3
20260509050832 72 193 0.9 1.7 0.00 0.00 0.00 99 1011.3
20260509050329 72 212 0.0 0.9 0.00 0.00 0.00 99 1011.2
20260509045826 72 225 0.9 1.7 0.00 0.00 0.00 99 1011.3
20260509045322 72 199 0.0 0.9 0.00 0.00 0.00 99 1011.3
20260509044820 72 170 0.9 1.7 0.00 0.00 0.00 99 1011.6
20260509044317 72 194 0.0 0.9 0.00 0.00 0.00 99 1011.4
20260509043813 72 216 0.0 0.0 0.00 0.00 0.00 99 1011.5
20260509043309 72 217 0.9 1.7 0.00 0.00 0.00 99 1011.5
20260509042806 72 190 0.0 0.9 0.00 0.00 0.00 99 1011.3
20260509042306 72 209 0.0 0.0 0.00 0.00 0.00 99 1011.4
20260509041759 72 205 0.0 1.7 0.00 0.00 0.00 99 1011.3
20260509041256 72 242 0.0 0.9 0.00 0.00 0.00 99 1011.3
20260509040754 72 194 0.0 1.7 0.00 0.00 0.00 99 1011.4
20260509040251 72 191 0.0 0.0 0.00 0.00 0.00 99 1011.3
20260509035748 72 195 0.0 0.9 0.00 0.00 0.00 99 1011.2
20260509035245 72 195 0.0 0.0 0.00 0.00 0.00 99 1011.2
20260509034742 72 206 0.9 0.9 0.00 0.00 0.00 99 1010.9
20260509034239 72 164 1.7 1.7 0.00 0.00 0.00 99 1011.1